This demonstration page uses our WeatherBlox Daily Observations layout. Learn more.

Hourly Observations for February 25, 2017

Temp ( °F °C ) Dew Point ( °F °C ) Humidity (%) Winds ( mph kmh ) Pressure ( in mb ) Visibility ( mi km ) Precip ( " mm )
12:15 am 00:15 Clear 15 -9.6 10 -12 83 83 WNW 8 13 30.33 1027 10 16.0934 0 0
12:35 am 00:35 Clear 15 -9.7 10 -12.3 82 82 WNW 9 15 30.33 1027 10 16.0934 0 0
12:55 am 00:55 Clear 15 -9.5 10 -12.1 82 82 W 9 15 30.33 1027 10 16.0934 0 0
1:15 am 01:15 Clear 16 -9 10 -12 79 79 NW 9 15 30.33 1027 10 16.0934 0 0
1:35 am 01:35 Clear 15 -9.7 10 -12.5 80 80 WNW 8 13 30.33 1027 10 16.0934 0 0
1:55 am 01:55 Clear 14 -9.8 9 -12.6 80 80 WNW 7 11 30.33 1027 10 16.0934 0 0
2:15 am 02:15 Clear 15 -9.6 10 -12.5 80 80 W 12 19 30.33 1027 10 16.0934 0 0
2:35 am 02:35 Clear 14 -9.8 10 -12.5 81 81 WNW 6 9 30.33 1027 10 16.0934 0 0
2:55 am 02:55 Clear 14 -10.2 9 -12.8 81 81 W 3 6 30.33 1027 10 16.0934 0 0
3:15 am 03:15 Clear 13 -10.6 8 -13.2 81 81 W 8 13 30.33 1027 10 16.0934 0 0
3:35 am 03:35 Clear 13 -10.5 8 -13.1 81 81 WNW 6 9 30.33 1027 10 16.0934 0 0
3:55 am 03:55 Clear 12 -11 8 -13.5 82 82 WNW 6 9 30.33 1027 10 16.0934 0 0
4:15 am 04:15 Clear 11 -11.4 7 -13.9 82 82 WNW 5 7 30.36 1028 10 16.0934 0 0
4:35 am 04:35 Clear 11 -11.8 6 -14.2 83 83 WNW 6 9 30.33 1027 10 16.0934 0 0
4:55 am 04:55 Clear 10 -12.1 6 -14.4 83 83 WNW 5 7 30.33 1027 10 16.0934 0 0
5:15 am 05:15 Clear 12 -11 7 -13.7 81 81 W 5 7 30.3 1026 10 16.0934 0 0
5:35 am 05:35 Clear 12 -11.3 7 -14 81 81 W 5 7 30.3 1026 10 16.0934 0 0
5:55 am 05:55 Clear 11 -11.4 7 -13.9 82 82 W 5 7 30.33 1027 10 16.0934 0 0
6:15 am 06:15 Clear 12 -11.1 8 -13.5 83 83 W 5 7 30.3 1026 10 16.0934 0 0
6:35 am 06:35 Clear 12 -11.1 8 -13.5 83 83 W 3 6 30.3 1026 10 16.0934 0 0
6:55 am 06:55 Clear 11 -11.6 7 -14.1 82 82 Calm 30.33 1027 10 16.0934 0 0
7:15 am 07:15 Clear 11 -11.8 6 -14.2 83 83 SW 6 9 30.33 1027 10 16.0934 0 0
7:35 am 07:35 Sunny 10 -12.2 6 -14.6 83 83 SW 3 6 30.33 1027 10 16.0934 0 0
7:55 am 07:55 Sunny 11 -11.8 6 -14.5 81 81 WSW 3 6 30.33 1027 10 16.0934 0 0
8:15 am 08:15 Sunny 13 -10.7 8 -13.5 80 80 Calm 30.3 1026 10 16.0934 0 0
8:35 am 08:35 Sunny 17 -8.2 10 -12 74 74 WSW 3 6 30.27 1025 10 16.0934 0 0
8:55 am 08:55 Sunny 19 -7 12 -11.3 72 72 WSW 8 13 30.27 1025 10 16.0934 0 0
9:15 am 09:15 Sunny 21 -6.2 13 -10.7 71 71 SW 8 13 30.27 1025 10 16.0934 0 0
9:35 am 09:35 Sunny 22 -5.7 14 -10.2 71 71 SW 8 13 30.27 1025 10 16.0934 0 0
9:55 am 09:55 Sunny 23 -5.2 14 -10 69 69 SW 7 11 30.21 1023 10 16.0934 0 0
10:15 am 10:15 Sunny 24 -4.3 15 -9.3 68 68 SW 9 15 30.21 1023 10 16.0934 0 0
10:35 am 10:35 Sunny 26 -3.4 16 -8.7 67 67 SW 10 17 30.21 1023 10 16.0934 0 0
10:55 am 10:55 Sunny 27 -2.6 17 -8.6 64 64 SSW 12 19 30.15 1021 10 16.0934 0 0
11:15 am 11:15 Sunny 28 -2.1 18 -8 64 64 SSW 14 22 30.15 1021 10 16.0934 0 0
11:35 am 11:35 Sunny 30 -1 20 -6.8 65 65 SSW 13 20 30.15 1021 10 16.0934 0 0
11:55 am 11:55 Sunny 32 -0.1 21 -6.1 64 64 SSW 16 26 30.09 1019 10 16.0934 0 0
12:15 pm 12:15 Sunny 34 0.9 22 -5.3 64 64 SSW 15 24 30.09 1019 10 16.0934 0 0
12:35 pm 12:35 Sunny 35 1.5 24 -4.4 65 65 SW 14 22 30.09 1019 10 16.0934 0 0
12:55 pm 12:55 Mostly Cloudy 36 2.2 25 -4 64 64 SW 14 22 30.06 1018 10 16.0934 0 0
1:15 pm 13:15 Cloudy 36 2.4 25 -4.1 63 63 WSW 13 20 30.06 1018 10 16.0934 0 0
1:35 pm 13:35 Mostly Cloudy 38 3.5 25 -3.9 59 59 WSW 15 24 30 1016 10 16.0934 0 0
1:55 pm 13:55 Mostly Cloudy 40 4.3 24 -4.4 54 54 WSW 15 24 30 1016 10 16.0934 0 0
2:15 pm 14:15 Mostly Cloudy 40 4.5 24 -4.4 53 53 W 16 26 29.97 1015 10 16.0934 0 0
2:35 pm 14:35 Partly Cloudy 40 4.7 24 -4.7 51 51 W 17 28 29.97 1015 10 16.0934 0 0
2:55 pm 14:55 Partly Cloudy 41 4.8 21 -6.3 45 45 W 17 28 29.97 1015 10 16.0934 0 0
3:15 pm 15:15 Sunny 40 4.7 19 -7.2 42 42 W 18 30 29.97 1015 10 16.0934 0 0
3:35 pm 15:35 Sunny 40 4.5 19 -7.4 42 42 W 17 28 29.97 1015 10 16.0934 0 0
3:55 pm 15:55 Sunny 40 4.3 19 -7.5 42 42 W 16 26 29.97 1015 10 16.0934 0 0
4:15 pm 16:15 Sunny 40 4.5 19 -7.3 42 42 W 17 28 29.97 1015 10 16.0934 0 0
4:35 pm 16:35 Sunny 39 4 17 -8.1 41 41 W 15 24 29.97 1015 10 16.0934 0 0
4:55 pm 16:55 Sunny 39 4 19 -7.5 43 43 W 16 26 29.97 1015 10 16.0934 0 0
5:15 pm 17:15 Sunny 38 3.1 18 -7.9 45 45 W 17 28 29.97 1015 10 16.0934 0 0
5:35 pm 17:35 Sunny 37 2.5 19 -7 50 50 W 10 17 29.97 1015 10 16.0934 0 0
5:55 pm 17:55 Sunny 36 2.4 19 -7.4 49 49 W 12 19 29.97 1015 10 16.0934 0 0
6:15 pm 18:15 Sunny 35 1.4 19 -7 54 54 W 8 13 30 1016 10 16.0934 0 0
6:35 pm 18:35 Clear 32 0.2 19 -7 59 59 W 6 9 30 1016 10 16.0934 0 0
6:55 pm 18:55 Clear 30 -1.2 19 -7.3 64 64 W 6 9 29.97 1015 10 16.0934 0 0
7:15 pm 19:15 Clear 30 -1.3 19 -7.3 64 64 W 5 7 29.97 1015 10 16.0934 0 0
7:35 pm 19:35 Clear 31 -0.6 19 -7.1 62 62 W 3 6 29.97 1015 10 16.0934 0 0
7:55 pm 19:55 Clear 30 -1.1 19 -7.1 64 64 Calm 29.97 1015 10 16.0934 0 0
8:15 pm 20:15 Clear 27 -2.9 19 -7.2 73 73 Calm 30 1016 10 16.0934 0 0
8:35 pm 20:35 Clear 28 -2.2 19 -7.1 69 69 WSW 3 6 30 1016 10 16.0934 0 0
8:55 pm 20:55 Clear 27 -3 19 -7.4 72 72 SW 5 7 30 1016 10 16.0934 0 0
9:15 pm 21:15 Clear 28 -2 19 -7.3 67 67 WSW 7 11 30 1016 10 16.0934 0 0
9:35 pm 21:35 Mostly Cloudy 30 -1.2 18 -8 60 60 W 9 15 29.97 1015 10 16.0934 0 0
9:55 pm 21:55 Mostly Cloudy 30 -1 16 -8.8 56 56 W 10 17 29.97 1015 10 16.0934 0 0
10:15 pm 22:15 Cloudy 29 -1.7 17 -8.6 60 60 W 9 15 30 1016 10 16.0934 0 0
10:35 pm 22:35 Cloudy 29 -1.9 17 -8.4 62 62 W 7 11 30 1016 10 16.0934 0 0
10:55 pm 22:55 Cloudy 30 -1.2 16 -8.8 57 57 W 7 11 29.97 1015 10 16.0934 0 0
11:15 pm 23:15 Cloudy 30 -1.2 16 -9 56 56 WSW 6 9 29.97 1015 10 16.0934 0 0
11:35 pm 23:35 Cloudy 30 -1.1 15 -9.2 55 55 WSW 6 9 29.97 1015 10 16.0934 0 0
11:55 pm 23:55 Cloudy 31 -0.5 15 -9.3 52 52 W 8 13 29.97 1015 10 16.0934 0 0

Powered by AerisWeather